Rexburg, ID

7:25 PM MST on February 18, 2018 (GMT -0700)
Rexburg-Madison County

Weather History for KRXE - July, 2013

Change the Weather History Date:

Monday, July 22, 2013

  Actual Average Record
Temperature  
Mean Temperature 71 °F 68 °F  
Max Temperature 93 °F 86 °F 96 °F (2000)
Min Temperature 49 °F 51 °F 45 °F (1999)
Degree Days  
Heating Degree Days 0 0  
Month to date heating degree days 0 27  
Since 1 June heating degree days 117 199  
Since 1 July heating degree days 0 27  
Cooling Degree Days 6 4  
Month to date cooling degree days 155 53  
Year to date cooling degree days 216 75  
Since 1 June cooling degree days 214 71  
Growing Degree Days 20 (Base 50)    
Moisture  
Dew Point 35 °F    
Average Humidity 42    
Maximum Humidity 77    
Minimum Humidity 7    
Precipitation  
Precipitation 0.00 in 0.02 in 0.37 in (1987)
Month to date precipitation 0.14 0.54  
Year to date precipitation 4.62 7.78  
Sea Level Pressure  
Sea Level Pressure 29.86 in    
Wind  
Wind Speed 7 mph (South)    
Max Wind Speed 20 mph    
Max Gust Speed 26 mph    
Visibility 10 miles    
Events      
T = Trace of Precipitation, MM = Missing Value Source: NWS Daily Summary

Daily Weather History Graph

Daily Weather History Graph

Search for Another Location

Airport or City:

Trip Planner

Search our weather history database for the weather conditions in past years. The results will help you decide how hot, cold, wet, or windy it might be!

Date:

Astronomy

Jul. 22, 2013 Rise Set
Actual Time 6:05 AM MDT 9:01 PM MDT
Civil Twilight 5:31 AM MDT 9:34 PM MDT
Nautical Twilight 4:48 AM MDT 10:18 PM MDT
Astronomical Twilight 3:57 AM MDT 11:08 PM MDT
Moon 8:46 PM MDT (7/22) 6:08 AM MDT (7/22)
Length of Visible Light 16h 03m
Length of Day
14h 55m
Full, 100% of the Moon is Illuminated
Jul 22
Full
Jul 22
Full
Jul 29
Last Quarter
Aug 6
New
Aug 14
First Quarter

Hourly Weather History & Observations

Time (MDT) Temp. Dew Point Humidity Pressure Visibility Wind Dir Wind Speed Gust Speed Precip Events Conditions
12:53 AM 62.1 °F 39.0 °F 43% 29.80 in 10.0 mi Calm Calm - N/A   Clear
1:53 AM 55.9 °F 44.1 °F 64% 29.82 in 10.0 mi North 4.6 mph - N/A   Clear
2:53 AM 53.1 °F 44.1 °F 71% 29.83 in 10.0 mi Calm Calm - N/A   Clear
3:53 AM 52.0 °F 44.1 °F 74% 29.84 in 10.0 mi NNE 4.6 mph - N/A   Clear
4:53 AM 51.1 °F 42.1 °F 71% 29.86 in 10.0 mi ENE 4.6 mph - N/A   Clear
5:53 AM 48.9 °F 39.9 °F 71% 29.88 in 10.0 mi NE 4.6 mph - N/A   Clear
6:53 AM 51.1 °F 39.9 °F 66% 29.90 in 10.0 mi Calm Calm - N/A   Clear
7:53 AM 52.0 °F 39.9 °F 63% 29.92 in 10.0 mi ENE 4.6 mph - N/A   Clear
8:53 AM 61.0 °F 43.0 °F 52% 29.93 in 10.0 mi Calm Calm - N/A   Clear
9:53 AM 71.1 °F 33.1 °F 25% 29.92 in 10.0 mi SW 8.1 mph - N/A   Clear
10:53 AM 77.0 °F 36.0 °F 23% 29.91 in 10.0 mi South 9.2 mph - N/A   Clear
11:53 AM 81.0 °F 32.0 °F 17% 29.89 in 10.0 mi South 10.4 mph 17.3 mph N/A   Clear
12:53 PM 84.0 °F 34.0 °F 17% 29.91 in 10.0 mi SSW 8.1 mph - N/A   Clear
1:53 PM 87.1 °F 27.0 °F 11% 29.89 in 10.0 mi South 9.2 mph - N/A   Clear
2:53 PM 91.0 °F 21.0 °F 8% 29.87 in 10.0 mi SSW 9.2 mph - N/A   Clear
3:53 PM 91.0 °F 19.9 °F 7% 29.86 in 10.0 mi SSE 12.7 mph 18.4 mph N/A   Clear
4:53 PM 91.9 °F 25.0 °F 9% 29.84 in 10.0 mi South 10.4 mph - N/A   Clear
5:53 PM 91.9 °F 28.0 °F 10% 29.81 in 10.0 mi South 11.5 mph 19.6 mph N/A   Clear
6:53 PM 89.1 °F 30.0 °F 12% 29.80 in 10.0 mi South 16.1 mph 25.3 mph N/A   Clear
7:53 PM 84.9 °F 34.0 °F 16% 29.80 in 10.0 mi South 9.2 mph - N/A   Clear
8:53 PM 78.1 °F 35.1 °F 21% 29.79 in 10.0 mi South 9.2 mph - N/A   Clear
9:53 PM 75.9 °F 30.9 °F 19% 29.79 in 10.0 mi South 11.5 mph - N/A   Clear
10:53 PM 66.9 °F 37.0 °F 33% 29.84 in 10.0 mi West 6.9 mph - N/A   Clear
11:53 PM 64.9 °F 42.1 °F 43% 29.86 in 10.0 mi Calm Calm - N/A   Clear